Weather in Baliasne

Ukraine / Poltava Region     49°49′13″N   34°20′07″E
В апреле 2022 года жителям России запретили посещать сайт meteo.paraplan.net по решению Генеральной прокуратуры. Аудитория сайта уменьшилась в 10 раз. Владельцы сайта не видят смысла в поддержке погодного сервера в таких условиях. Сайт будет закрыт в октябре.
temp.,
°C
wind,
m/s
gust,
m/s
humid.,
%
clouds,
%
prec.,
mm/h
press.,
hPa
HPBL,
m
5 october, wed
wed500:00+9wsw51184100 0.0 1016516
03:00+9wsw71183100 0.3 1017758
06:00+9wsw498696 0.1 1019379
09:00+10w7118442 0.3 1020603
12:00+11wnw796879 0.1 10221225
15:00+11wnw796374 0.2 10231365
18:00+10wnw4874100 0.0 1024382
21:00+8wnw3785100 0.0 1025231
6 october, thu
thu600:00+9w2486100 0.0 1026127
03:00+8wsw3391100 0.0 102656
06:00+8wsw3590100 0.0 1026115
09:00+11sw4877100 0.0 1025308
12:00+13wsw586895 0.0 1025539
15:00+17w675134 0.0 10241018
18:00+14sw34665 0.0 102458
21:00+12wsw357195 0.0 102470
7 october, fri
fri700:00+10w347698 0.0 102565
03:00+9wnw35885 0.0 102583
06:00+9nw35935 0.0 102585
09:00+12nnw48839 0.0 1026289
12:00+16n566295 0.0 1027757
15:00+18n56475 0.0 10261021
18:00+13n346314 0.0 102760
21:00+11nne35720 0.0 102868
8 october, sat
sat800:00+9ne34820 0.0 102846
03:00+8ene34870 0.0 102754
06:00+8ene34905 0.0 102756
09:00+11e35735 0.0 1026215
12:00+16ese34505 0.0 1025696
15:00+18e34415 0.0 1023945
18:00+14e33545 0.0 102223
21:00+12e356597 0.0 102267
9 october, sun
sun900:00+11ese347295 0.0 102145
03:00+10ese2275100 0.0 102025
06:00+10se228198 0.0 102020
09:00+13sse1271100 0.0 1019115
12:00+17w2357100 0.0 1019572
15:00+17nw4558100 0.0 10191011
18:00+13nnw61168100 0.0 1020706
21:00+10nnw512875 0.0 1023504